Theta_e
326 323 326 331 333 332 333 330 332 333 335 333 329 333 335 334 335 336 334 332 331 332
322 322 323 326 331 330 330 330 332 333 331 330 329 329 327 329 327 323 325 323 325 323
322 321 325 324 326 328 330 327 326 326 326 324 322 320 319 320 318 318 319 318 314 313
319 321 323 321 323 324 323 322 321 320 318 316 314 314 315 314 315 313 311 311 311 308
321 321 321 320 319 318 316 316 315 315 313 312 312 312 311 310 309 307 306 306 306 306
316 320 318 319 315 313 312 310 309 309 309 309 309 308 308 307 306 305 304 304 303 304
314 317 318 315 311 309 308 307 307 307 307 307 307 307 306 306 305 304 304 304 304 304
312 315 314 310 307 306 305 305 305 305 304 304 304 305 304 304 303 303 303 303 305 305
311 312 308 305 303 303 303 303 303 302 302 302 302 301 303 304 302 302 301 301 302 303
311 308 304 302 301 300 300 300 300 300 300 300 301 299 300 302 303 301 301 300 300 302
307 302 301 300 299 299 299 299 299 299 299 299 300 299 299 300 302 301 301 302 301 302
303 300 299 297 297 298 298 299 300 300 300 299 300 297 298 300 303 304 304 303 300 304
301 298 297 297 297 298 299 300 301 301 303 302 302 297 297 300 305 304 304 304 303 299
299 298 298 298 299 299 300 303 304 303 304 303 302 302 296 296 305 305 303 302 301 301
Wind_Speed
14 9 10 13 10 9 7 6 12 11 1 3 1 3 5 5 6 7 7 10 9 7
11 12 12 16 12 6 6 5 8 8 9 9 9 7 8 5 7 7 6 5 6 4
10 11 11 13 16 14 10 12 13 14 9 8 8 7 7 6 7 6 4 4 5 4
9 12 11 9 12 14 15 13 13 11 11 10 8 8 7 7 7 6 6 6 5 5
6 8 9 9 8 14 14 11 11 9 9 9 9 8 7 6 6 6 7 6 6 5
13 6 8 7 7 10 9 9 9 9 8 9 8 8 7 7 7 8 9 9 9 8
10 13 6 7 10 8 6 6 6 8 9 8 7 8 8 8 8 9 10 10 9 8
11 11 9 8 9 6 5 6 7 7 8 10 10 8 8 8 8 9 10 10 8 8
12 10 8 9 7 6 7 7 8 8 9 11 7 14 15 11 9 9 9 8 7 8
11 8 10 8 7 7 6 7 8 8 9 9 8 13 13 13 8 7 6 6 5 5
10 9 9 9 8 7 6 6 6 7 7 7 7 13 12 11 6 5 4 2 3 4
8 9 9 9 7 6 5 5 6 5 7 8 8 12 10 7 2 6 7 7 7 4
8 9 9 8 6 3 3 4 4 4 6 6 6 8 9 9 5 5 4 3 4 7
9 9 7 5 2 2 3 4 5 7 6 6 7 7 10 7 3 3 4 4 4 5
Wind_Direction
357 1 355 350 6 14 15 37 23 358 10 207 1 318 327 325 320 331 325 312 308 309
360 352 356 358 352 11 11 0 49 19 33 14 25 9 338 324 343 333 338 358 347 348
354 347 360 18 351 347 8 5 20 13 2 3 7 1 340 333 321 312 341 352 57 30
349 349 358 21 355 355 1 4 7 360 350 354 356 6 358 359 353 25 21 23 34 52
350 351 348 354 15 27 346 357 3 359 351 357 13 22 20 28 28 33 40 33 36 35
334 347 334 7 39 41 352 355 5 360 7 17 19 26 28 34 42 49 48 42 35 26
324 315 352 37 50 43 355 357 7 20 21 23 36 44 48 54 51 54 52 47 42 35
312 322 73 62 54 38 24 24 32 44 42 48 47 42 47 48 54 50 52 40 38 47
307 68 70 65 64 52 41 40 47 50 53 51 44 49 47 50 53 48 45 42 30 32
340 80 73 76 67 55 46 50 49 49 54 49 40 36 36 37 43 46 43 31 24 36
94 89 91 81 68 54 47 46 51 49 47 47 37 30 26 18 31 41 39 29 14 16
74 89 85 80 69 56 58 51 49 51 53 43 26 19 10 336 354 37 40 62 32 26
82 87 84 77 64 44 81 80 71 61 75 66 42 7 1 13 14 61 51 47 89 32
83 84 84 81 70 27 60 65 81 78 85 65 34 7 360 0 355 57 50 37 33 0